When you browse on this site, cookies collect data to enhance your experience and personalize the content and advertising you see.
Visit our Privacy Policy to learn more. By continuing to use the site, you agree to this use of cookies and data.
  • In Hungary
  • List of Countries
  • For 7 days
  • Water Temperature
  • Weather Map
  • News
  • Weather Widgets
  • user-avatar
    Login

    Hourly Weather Zosin

    Today, 25 August, Sunday

    Time Temperature Precipitation Wind Pressure Humidity
    00:00 +16°C° 0 mm 1 mps 758 mmHg 72%
    01:00 +16°C° 0 mm 1 mps 758 mmHg 74%
    02:00 +16°C° 0 mm 1 mps 758 mmHg 75%
    03:00 +15°C° 0 mm 1 mps 758 mmHg 75%
    04:00 +15°C° 0 mm 1 mps 758 mmHg 76%
    05:00 +16°C° 0 mm 2 mps 758 mmHg 73%
    06:00 +18°C° 0 mm 2 mps 758 mmHg 71%
    07:00 +19°C° 0 mm 2 mps 758 mmHg 69%
    08:00 +20°C° 0 mm 2 mps 759 mmHg 64%
    09:00 +23°C° 0 mm 2 mps 759 mmHg 59%
    10:00 +25°C° 0 mm 2 mps 759 mmHg 54%
    11:00 +25°C° 0 mm 3 mps 759 mmHg 51%
    12:00 +26°C° 0 mm 3 mps 758 mmHg 49%
    13:00 +27°C° 0 mm 3 mps 758 mmHg 47%
    14:00 +27°C° 0 mm 3 mps 758 mmHg 49%
    15:00 +27°C° 0 mm 3 mps 758 mmHg 50%
    16:00 +26°C° 0 mm 3 mps 757 mmHg 51%
    17:00 +24°C° 0 mm 3 mps 757 mmHg 57%
    18:00 +23°C° 0 mm 2 mps 758 mmHg 63%
    19:00 +20°C° 0 mm 2 mps 758 mmHg 69%
    20:00 +19°C° 0 mm 2 mps 758 mmHg 72%
    21:00 +18°C° 0 mm 2 mps 758 mmHg 74%
    22:00 +17°C° 0 mm 2 mps 758 mmHg 77%
    23:00 +17°C° 0 mm 2 mps 758 mmHg 78%

    Tomorrow, 26 August, Monday

    Time Temperature Precipitation Wind Pressure Humidity
    00:00 +16°C° 0 mm 2 mps 758 mmHg 80%
    01:00 +16°C° 0 mm 2 mps 758 mmHg 81%
    02:00 +15°C° 0 mm 2 mps 758 mmHg 83%
    03:00 +15°C° 0 mm 2 mps 758 mmHg 84%
    04:00 +15°C° 0 mm 2 mps 757 mmHg 85%
    05:00 +16°C° 0 mm 3 mps 757 mmHg 82%
    06:00 +17°C° 0 mm 3 mps 757 mmHg 79%
    07:00 +18°C° 0 mm 3 mps 757 mmHg 76%
    08:00 +20°C° 0 mm 3 mps 757 mmHg 69%
    09:00 +22°C° 0 mm 4 mps 757 mmHg 62%
    10:00 +25°C° 0 mm 4 mps 757 mmHg 55%
    11:00 +26°C° 0 mm 4 mps 757 mmHg 53%
    12:00 +26°C° 0 mm 4 mps 757 mmHg 52%
    13:00 +27°C° 0 mm 4 mps 757 mmHg 50%
    14:00 +27°C° 0 mm 4 mps 756 mmHg 51%
    15:00 +27°C° 0 mm 3 mps 756 mmHg 52%
    16:00 +27°C° 0 mm 3 mps 756 mmHg 53%
    17:00 +25°C° 0 mm 3 mps 756 mmHg 59%
    18:00 +24°C° 0 mm 3 mps 756 mmHg 65%
    19:00 +21°C° 0 mm 3 mps 756 mmHg 71%
    20:00 +20°C° 0 mm 3 mps 756 mmHg 73%
    21:00 +20°C° 0 mm 3 mps 756 mmHg 76%
    22:00 +19°C° 0 mm 3 mps 756 mmHg 79%
    23:00 +18°C° 0 mm 3 mps 756 mmHg 82%

    Day after tomorrow, 27 August, Tuesday

    Time Temperature Precipitation Wind Pressure Humidity
    00:00 +18°C° 0 mm 3 mps 756 mmHg 86%
    01:00 +18°C° 0 mm 3 mps 756 mmHg 90%
    02:00 +17°C° 0 mm 3 mps 756 mmHg 90%
    03:00 +17°C° 0 mm 3 mps 756 mmHg 90%
    04:00 +17°C° 0 mm 3 mps 756 mmHg 90%
    05:00 +18°C° 0 mm 3 mps 756 mmHg 86%
    06:00 +19°C° 0 mm 4 mps 756 mmHg 81%
    07:00 +21°C° 0 mm 4 mps 756 mmHg 76%
    08:00 +22°C° 0 mm 4 mps 756 mmHg 71%
    09:00 +25°C° 0 mm 4 mps 756 mmHg 65%
    10:00 +27°C° 0 mm 4 mps 756 mmHg 60%
    11:00 +28°C° 0 mm 4 mps 756 mmHg 57%
    12:00 +28°C° 0 mm 4 mps 756 mmHg 54%
    13:00 +29°C° 0 mm 4 mps 756 mmHg 52%
    14:00 +29°C° 0 mm 4 mps 756 mmHg 53%
    15:00 +29°C° 0 mm 4 mps 755 mmHg 54%
    16:00 +29°C° 0 mm 4 mps 755 mmHg 56%
    17:00 +27°C° 0 mm 3 mps 755 mmHg 61%
    18:00 +25°C° 0 mm 3 mps 755 mmHg 67%
    19:00 +22°C° 0 mm 3 mps 755 mmHg 72%
    20:00 +22°C° 0 mm 3 mps 755 mmHg 73%
    21:00 +21°C° 0 mm 3 mps 756 mmHg 73%
    22:00 +20°C° 0 mm 3 mps 756 mmHg 74%
    23:00 +20°C° 0 mm 3 mps 756 mmHg 76%

    28 August, Wednesday

    Time Temperature Precipitation Wind Pressure Humidity
    00:00 +19°C° 0 mm 3 mps 756 mmHg 78%
    01:00 +19°C° 0 mm 3 mps 756 mmHg 81%
    02:00 +18°C° 0 mm 3 mps 755 mmHg 83%
    03:00 +18°C° 0 mm 3 mps 755 mmHg 85%
    04:00 +18°C° 0 mm 3 mps 755 mmHg 87%
    05:00 +19°C° 0 mm 4 mps 755 mmHg 83%
    06:00 +20°C° 0 mm 4 mps 755 mmHg 80%
    07:00 +21°C° 0 mm 4 mps 755 mmHg 76%
    08:00 +22°C° 0 mm 5 mps 755 mmHg 71%
    09:00 +25°C° 0 mm 5 mps 755 mmHg 65%
    10:00 +27°C° 0 mm 5 mps 755 mmHg 59%
    11:00 +27°C° 0 mm 5 mps 755 mmHg 56%
    12:00 +28°C° 0 mm 5 mps 755 mmHg 54%
    13:00 +29°C° 0 mm 5 mps 754 mmHg 51%
    14:00 +29°C° 0 mm 5 mps 754 mmHg 52%
    15:00 +29°C° 0 mm 5 mps 754 mmHg 54%
    16:00 +28°C° 0 mm 4 mps 754 mmHg 56%
    17:00 +27°C° 0 mm 4 mps 753 mmHg 60%
    18:00 +25°C° 0 mm 4 mps 753 mmHg 65%
    19:00 +23°C° 0 mm 4 mps 753 mmHg 70%
    20:00 +22°C° 0 mm 5 mps 753 mmHg 71%
    21:00 +22°C° 0 mm 5 mps 754 mmHg 73%
    22:00 +21°C° 0 mm 5 mps 754 mmHg 74%
    23:00 +20°C° 0 mm 5 mps 754 mmHg 74%

    29 August, Thursday

    Time Temperature Precipitation Wind Pressure Humidity
    00:00 +20°C° 0 mm 5 mps 754 mmHg 75%
    01:00 +19°C° 0 mm 5 mps 754 mmHg 75%
    02:00 +19°C° 0 mm 5 mps 754 mmHg 74%
    03:00 +17°C° 0 mm 5 mps 754 mmHg 73%
    04:00 +17°C° 0 mm 5 mps 754 mmHg 72%
    05:00 +17°C° 0 mm 5 mps 754 mmHg 72%
    06:00 +19°C° 0 mm 5 mps 754 mmHg 72%
    07:00 +19°C° 0 mm 5 mps 754 mmHg 71%
    08:00 +21°C° 0 mm 6 mps 754 mmHg 66%
    09:00 +23°C° 0 mm 6 mps 754 mmHg 62%
    10:00 +24°C° 0 mm 6 mps 754 mmHg 57%
    11:00 +26°C° 0 mm 6 mps 754 mmHg 55%
    12:00 +27°C° 0 mm 6 mps 753 mmHg 53%
    13:00 +27°C° 0 mm 6 mps 753 mmHg 51%
    14:00 +27°C° 0 mm 6 mps 753 mmHg 52%
    15:00 +27°C° 0 mm 6 mps 753 mmHg 54%
    16:00 +26°C° 0 mm 6 mps 753 mmHg 55%
    17:00 +24°C° 0 mm 6 mps 753 mmHg 59%
    18:00 +22°C° 0 mm 5 mps 753 mmHg 63%
    19:00 +21°C° 0 mm 5 mps 753 mmHg 67%
    20:00 +20°C° 0 mm 5 mps 753 mmHg 68%
    21:00 +19°C° 0 mm 6 mps 753 mmHg 68%
    22:00 +19°C° 0 mm 6 mps 753 mmHg 69%
    23:00 +17°C° 0 mm 6 mps 753 mmHg 69%

    30 August, Friday

    Time Temperature Precipitation Wind Pressure Humidity
    00:00 +17°C° 0 mm 5 mps 753 mmHg 69%
    01:00 +17°C° 0 mm 5 mps 753 mmHg 69%
    02:00 +16°C° 0 mm 5 mps 753 mmHg 68%
    03:00 +16°C° 0 mm 5 mps 753 mmHg 66%
    04:00 +15°C° 0 mm 5 mps 753 mmHg 64%
    05:00 +15°C° 0 mm 5 mps 753 mmHg 63%
    06:00 +16°C° 0 mm 5 mps 753 mmHg 62%
    07:00 +16°C° 0 mm 5 mps 753 mmHg 60%
    08:00 +17°C° 0 mm 5 mps 753 mmHg 57%
    09:00 +20°C° 0 mm 5 mps 753 mmHg 54%
    10:00 +21°C° 0 mm 5 mps 753 mmHg 51%
    11:00 +23°C° 0 mm 6 mps 753 mmHg 50%
    12:00 +24°C° 0 mm 6 mps 753 mmHg 48%
    13:00 +26°C° 0 mm 6 mps 753 mmHg 47%
    14:00 +26°C° 0 mm 5 mps 753 mmHg 48%
    15:00 +26°C° 0 mm 5 mps 753 mmHg 50%
    16:00 +26°C° 0 mm 4 mps 752 mmHg 51%
    17:00 +25°C° 0 mm 4 mps 752 mmHg 56%
    18:00 +22°C° 0 mm 4 mps 753 mmHg 60%
    19:00 +20°C° 0 mm 4 mps 753 mmHg 65%
    20:00 +20°C° 0.2 mm 4 mps 753 mmHg 67%
    21:00 +19°C° 0.2 mm 4 mps 753 mmHg 69%
    22:00 +18°C° 0.2 mm 4 mps 753 mmHg 71%
    23:00 +18°C° 0.7 mm 3 mps 753 mmHg 74%
    Show more